Wind_Speed
24 21 17 17 16 17 18 18 22 31 27 31 36 34 35 34 33 37 36 34 31 25
23 19 16 15 14 15 15 15 18 23 28 32 35 38 37 36 34 31 34 32 32 27
22 19 16 15 15 15 13 14 16 20 28 31 35 37 37 31 33 33 30 31 32 30
22 20 17 16 16 16 13 15 15 15 23 30 33 34 36 36 32 33 32 31 33 32
20 20 19 18 17 16 15 14 13 14 18 24 29 33 35 33 32 34 33 32 32 29
21 21 20 19 18 16 15 14 12 13 14 20 24 29 32 32 32 34 33 30 33 29
19 20 20 19 18 17 16 14 14 14 15 16 18 22 27 28 28 29 29 32 32 33
17 17 19 18 17 16 16 16 15 13 13 14 16 20 22 25 27 29 29 27 30 35
17 16 16 16 16 16 15 16 17 16 15 15 15 20 24 26 26 26 28 28 27 31
17 17 15 14 15 16 16 17 17 17 16 18 22 24 25 29 26 27 29 28 27 29
15 15 15 15 14 14 15 16 17 17 17 17 19 22 25 31 28 28 30 31 31 32
12 9 11 14 14 15 14 15 16 16 17 18 20 23 24 27 33 26 26 29 31 33
12 12 9 6 6 11 14 16 14 13 13 16 16 19 22 26 29 26 24 21 20 24
16 18 14 10 5 2 10 15 18 16 12 9 5 10 18 24 29 28 21 12 7 10
Wind_Direction
197 194 199 193 190 196 203 203 200 203 200 204 192 186 184 186 190 191 190 194 199 203
192 191 191 193 192 196 196 197 200 209 209 201 195 191 189 190 193 191 190 192 197 198
193 191 187 188 188 189 185 198 201 203 206 206 199 194 192 194 197 191 188 192 192 199
191 189 184 189 186 179 177 193 196 198 196 201 203 197 195 198 193 189 192 191 190 198
183 182 180 184 178 172 180 188 195 194 208 209 199 197 194 194 195 197 195 197 195 197
177 176 182 183 174 174 177 189 190 187 191 202 198 197 196 196 195 197 202 200 203 200
168 177 182 180 170 178 175 188 190 192 186 190 197 201 201 198 198 199 198 200 198 196
172 185 184 175 174 181 182 188 193 192 188 194 193 197 198 198 200 202 206 207 204 207
171 182 180 172 175 177 187 192 189 194 194 194 201 212 211 201 201 201 206 210 207 210
173 179 180 173 177 182 191 196 197 198 196 201 210 218 217 208 200 196 201 205 207 212
170 172 174 177 181 188 196 200 201 201 204 209 211 216 221 219 209 206 207 209 212 215
75 116 179 180 186 193 196 201 205 208 205 205 215 223 225 222 221 225 216 219 223 226
54 71 75 98 159 210 205 200 193 186 188 199 206 225 229 230 228 228 232 231 223 228
61 55 55 61 72 107 177 154 140 126 109 117 178 221 234 231 228 225 215 205 209 234
Height
702 705 711 714 717 722 726 728 733 737 741 745 750 755 759 765 770 773 777 784 791 796
699 702 706 712 715 719 722 725 730 733 737 741 746 750 755 759 765 769 775 781 788 792
696 700 704 709 714 717 719 724 727 731 734 738 742 746 751 757 763 765 771 777 784 789
692 697 702 707 712 714 717 722 725 728 731 734 738 743 747 754 758 762 768 773 778 785
690 694 699 705 708 710 715 720 723 725 729 733 735 739 743 748 752 759 764 770 776 780
686 691 697 702 704 709 713 718 722 724 726 730 733 737 741 745 749 754 760 766 771 777
684 690 695 699 701 707 711 717 720 722 725 729 733 736 740 744 748 753 757 762 767 771
684 690 694 696 700 706 709 714 719 722 724 728 731 734 738 742 746 751 756 760 765 769
683 688 691 693 698 704 708 712 716 721 723 727 730 732 736 740 744 748 753 756 761 764
682 686 689 692 696 701 706 710 714 718 721 724 727 730 734 737 741 744 748 752 756 760
680 683 687 690 695 699 703 708 712 716 719 722 725 728 731 735 739 741 744 747 751 754
680 682 685 689 692 697 701 705 709 713 716 719 722 725 728 732 735 738 740 743 746 749
685 684 688 687 691 694 698 702 707 709 713 717 719 721 725 729 732 734 736 737 739 741
687 685 688 689 690 692 695 698 703 707 712 715 717 718 719 722 726 728 730 733 736 738